When you browse on this site, cookies collect data to enhance your experience and personalize the content and advertising you see.
Visit our Privacy Policy to learn more. By continuing to use the site, you agree to this use of cookies and data.
  • In Hungary
  • List of Countries
  • For 7 days
  • Water Temperature
  • Satellite Maps
  • Weather Map
  • News
  • Weather Widgets
  • user-avatar
    Login

    Hourly Weather Thimphu

    Today, 21 January, Monday

    Time Temperature Precipitation Wind Pressure Humidity
    00:00 0°C° 0 mm 1 mps 522 mmHg 82%
    01:00 0°C° 0 mm 1 mps 521 mmHg 81%
    02:00 0°C° 0 mm 1 mps 521 mmHg 80%
    03:00 -1°C° 0 mm 1 mps 521 mmHg 80%
    04:00 -1°C° 0 mm 1 mps 521 mmHg 77%
    05:00 -1°C° 0 mm 1 mps 521 mmHg 74%
    06:00 -4°C° 0 mm 2 mps 521 mmHg 71%
    07:00 +1°C° 0 mm 1 mps 522 mmHg 62%
    08:00 +3°C° 0 mm 1 mps 524 mmHg 54%
    09:00 +6°C° 0 mm 1 mps 526 mmHg 46%
    10:00 +7°C° 0 mm 1 mps 526 mmHg 44%
    11:00 +7°C° 0 mm 2 mps 527 mmHg 43%
    12:00 +9°C° 0 mm 2 mps 527 mmHg 42%
    13:00 +8°C° 0 mm 2 mps 527 mmHg 46%
    14:00 +8°C° 0 mm 2 mps 526 mmHg 50%
    15:00 +7°C° 0 mm 3 mps 525 mmHg 54%
    16:00 +5°C° 0.1 mm 2 mps 524 mmHg 66%
    17:00 +3°C° 0.1 mm 2 mps 523 mmHg 78%
    18:00 +2°C° 0.1 mm 1 mps 522 mmHg 89%
    19:00 +2°C° 0 mm 1 mps 522 mmHg 89%
    20:00 +1°C° 0 mm 1 mps 522 mmHg 88%
    21:00 +1°C° 0 mm 1 mps 522 mmHg 87%
    22:00 0°C° 0 mm 1 mps 522 mmHg 85%
    23:00 0°C° 0 mm 1 mps 522 mmHg 83%

    Tomorrow, 22 January, Tuesday

    Time Temperature Precipitation Wind Pressure Humidity
    00:00 0°C° 0 mm 1 mps 522 mmHg 81%
    01:00 -1°C° 0 mm 1 mps 521 mmHg 78%
    02:00 -1°C° 0 mm 1 mps 521 mmHg 74%
    03:00 -1°C° 0 mm 1 mps 521 mmHg 71%
    04:00 -2°C° 0 mm 1 mps 521 mmHg 66%
    05:00 -4°C° 0 mm 2 mps 521 mmHg 62%
    06:00 -4°C° 0 mm 2 mps 521 mmHg 57%
    07:00 +1°C° 0 mm 1 mps 523 mmHg 48%
    08:00 +4°C° 0 mm 1 mps 525 mmHg 39%
    09:00 +5°C° 0 mm 0 mps 527 mmHg 30%
    10:00 +8°C° 0 mm 1 mps 527 mmHg 29%
    11:00 +9°C° 0 mm 1 mps 528 mmHg 28%
    12:00 +9°C° 0 mm 2 mps 528 mmHg 26%
    13:00 +9°C° 0 mm 2 mps 527 mmHg 32%
    14:00 +8°C° 0 mm 2 mps 526 mmHg 38%
    15:00 +7°C° 0 mm 3 mps 526 mmHg 43%
    16:00 +5°C° 0.1 mm 2 mps 524 mmHg 57%
    17:00 +3°C° 0.1 mm 2 mps 523 mmHg 70%
    18:00 +1°C° 0.1 mm 1 mps 522 mmHg 83%
    19:00 +1°C° 0.1 mm 1 mps 522 mmHg 83%
    20:00 0°C° 0.1 mm 1 mps 522 mmHg 83%
    21:00 0°C° 0.1 mm 1 mps 522 mmHg 83%
    22:00 0°C° 0 mm 1 mps 522 mmHg 79%
    23:00 0°C° 0 mm 1 mps 522 mmHg 76%

    Day after tomorrow, 23 January, Wednesday

    Time Temperature Precipitation Wind Pressure Humidity
    00:00 -1°C° 0 mm 1 mps 522 mmHg 73%
    01:00 -1°C° 0 mm 1 mps 521 mmHg 70%
    02:00 -1°C° 0 mm 1 mps 521 mmHg 68%
    03:00 -1°C° 0 mm 1 mps 521 mmHg 65%
    04:00 0°C° 0.1 mm 1 mps 521 mmHg 63%
    05:00 0°C° 0.1 mm 1 mps 521 mmHg 61%
    06:00 0°C° 0.1 mm 1 mps 521 mmHg 60%
    07:00 +1°C° 0.2 mm 1 mps 522 mmHg 59%
    08:00 +1°C° 0.2 mm 1 mps 523 mmHg 57%
    09:00 +2°C° 0.2 mm 1 mps 524 mmHg 56%
    10:00 +3°C° 0.3 mm 1 mps 524 mmHg 57%
    11:00 +4°C° 0.3 mm 1 mps 524 mmHg 57%
    12:00 +5°C° 0.3 mm 1 mps 524 mmHg 58%
    13:00 +5°C° 0.5 mm 1 mps 524 mmHg 61%
    14:00 +4°C° 0.5 mm 1 mps 523 mmHg 64%
    15:00 +4°C° 0.5 mm 1 mps 522 mmHg 68%
    16:00 +3°C° 0.4 mm 1 mps 522 mmHg 73%
    17:00 +2°C° 0.4 mm 1 mps 521 mmHg 79%
    18:00 +1°C° 0.4 mm 1 mps 521 mmHg 85%
    19:00 +1°C° 0.4 mm 1 mps 521 mmHg 84%
    20:00 +1°C° 0.4 mm 1 mps 522 mmHg 84%
    21:00 +1°C° 0.4 mm 1 mps 522 mmHg 84%
    22:00 +1°C° 0.3 mm 1 mps 522 mmHg 84%
    23:00 +1°C° 0.3 mm 1 mps 522 mmHg 84%

    24 January, Thursday

    Time Temperature Precipitation Wind Pressure Humidity
    00:00 0°C° 0.3 mm 1 mps 522 mmHg 84%
    01:00 0°C° 0.1 mm 1 mps 522 mmHg 85%
    02:00 -1°C° 0.1 mm 1 mps 521 mmHg 86%
    03:00 -1°C° 0.1 mm 1 mps 521 mmHg 86%
    04:00 -1°C° 0.1 mm 1 mps 521 mmHg 85%
    05:00 -1°C° 0.1 mm 1 mps 521 mmHg 83%
    06:00 -1°C° 0.1 mm 1 mps 521 mmHg 82%
    07:00 0°C° 0 mm 1 mps 523 mmHg 74%
    08:00 +2°C° 0 mm 1 mps 525 mmHg 66%
    09:00 +4°C° 0 mm 1 mps 526 mmHg 58%
    10:00 +5°C° 0.1 mm 1 mps 526 mmHg 56%
    11:00 +6°C° 0.1 mm 2 mps 527 mmHg 55%
    12:00 +7°C° 0.1 mm 2 mps 527 mmHg 53%
    13:00 +7°C° 0.1 mm 2 mps 526 mmHg 53%
    14:00 +7°C° 0.1 mm 2 mps 526 mmHg 52%
    15:00 +6°C° 0.1 mm 2 mps 525 mmHg 52%
    16:00 +4°C° 0 mm 2 mps 524 mmHg 62%
    17:00 +1°C° 0 mm 2 mps 523 mmHg 71%
    18:00 -1°C° 0 mm 1 mps 521 mmHg 81%
    19:00 -1°C° 0 mm 1 mps 522 mmHg 77%
    20:00 -4°C° 0 mm 2 mps 522 mmHg 73%
    21:00 -4°C° 0 mm 2 mps 522 mmHg 69%
    22:00 -5°C° 0 mm 2 mps 522 mmHg 67%
    23:00 -5°C° 0 mm 2 mps 522 mmHg 64%

    25 January, Friday

    Time Temperature Precipitation Wind Pressure Humidity
    00:00 -5°C° 0 mm 2 mps 522 mmHg 62%
    01:00 -5°C° 0 mm 2 mps 522 mmHg 60%
    02:00 -5°C° 0 mm 2 mps 521 mmHg 58%
    03:00 -5°C° 0 mm 2 mps 521 mmHg 57%
    04:00 -5°C° 0 mm 2 mps 521 mmHg 55%
    05:00 -5°C° 0 mm 2 mps 521 mmHg 54%
    06:00 -5°C° 0 mm 2 mps 521 mmHg 52%
    07:00 -2°C° 0 mm 2 mps 523 mmHg 47%
    08:00 +2°C° 0 mm 1 mps 525 mmHg 42%
    09:00 +4°C° 0 mm 1 mps 527 mmHg 36%
    10:00 +6°C° 0 mm 1 mps 527 mmHg 37%
    11:00 +7°C° 0 mm 1 mps 528 mmHg 38%
    12:00 +8°C° 0 mm 2 mps 528 mmHg 38%
    13:00 +7°C° 0.1 mm 2 mps 527 mmHg 42%
    14:00 +6°C° 0.1 mm 2 mps 526 mmHg 46%
    15:00 +5°C° 0.1 mm 2 mps 525 mmHg 50%
    16:00 +4°C° 0.2 mm 1 mps 524 mmHg 59%
    17:00 +3°C° 0.2 mm 1 mps 523 mmHg 69%
    18:00 +1°C° 0.2 mm 1 mps 522 mmHg 78%
    19:00 +1°C° 0.3 mm 1 mps 523 mmHg 78%
    20:00 +1°C° 0.3 mm 1 mps 523 mmHg 79%
    21:00 0°C° 0.3 mm 1 mps 524 mmHg 79%
    22:00 0°C° 0.6 mm 1 mps 523 mmHg 80%
    23:00 0°C° 0.6 mm 1 mps 523 mmHg 82%

    26 January, Saturday

    Time Temperature Precipitation Wind Pressure Humidity
    00:00 0°C° 0.6 mm 1 mps 523 mmHg 83%
    01:00 0°C° 0.8 mm 1 mps 522 mmHg 83%
    02:00 -1°C° 0.8 mm 1 mps 522 mmHg 83%
    03:00 -1°C° 0.8 mm 1 mps 521 mmHg 84%
    04:00 -1°C° 1.3 mm 1 mps 521 mmHg 85%
    05:00 -1°C° 1.3 mm 1 mps 521 mmHg 87%
    06:00 -1°C° 1.3 mm 1 mps 521 mmHg 88%
    07:00 -1°C° 1.4 mm 1 mps 522 mmHg 87%
    08:00 0°C° 1.4 mm 1 mps 522 mmHg 87%
    09:00 0°C° 1.4 mm 1 mps 523 mmHg 86%
    10:00 +1°C° 1.5 mm 1 mps 523 mmHg 86%
    11:00 +1°C° 1.5 mm 1 mps 523 mmHg 85%
    12:00 +2°C° 1.5 mm 1 mps 523 mmHg 85%
    13:00 +2°C° 1.3 mm 1 mps 523 mmHg 86%
    14:00 +2°C° 1.3 mm 1 mps 523 mmHg 86%
    15:00 +2°C° 1.3 mm 1 mps 523 mmHg 87%
    16:00 +1°C° 1.1 mm 1 mps 522 mmHg 88%
    17:00 +1°C° 1.1 mm 1 mps 522 mmHg 89%
    18:00 0°C° 1.1 mm 1 mps 522 mmHg 91%
    19:00 0°C° 0.9 mm 1 mps 522 mmHg 90%
    20:00 0°C° 0.9 mm 1 mps 523 mmHg 90%
    21:00 0°C° 0.9 mm 1 mps 523 mmHg 90%
    22:00 -1°C° 0.8 mm 1 mps 523 mmHg 90%
    23:00 -1°C° 0.8 mm 1 mps 523 mmHg 90%
    Show more